EW4099 Weather Reports


Display with metric or nautical units.
time (UTC)temp
F
wind
direction
speed
MPH
gust
MPH
rain 1hr
in
rain 24hr
in
rain mn
in
humidity
%
barometer
mb
20200224053057 42 135 1.0 2.0 0.00 0.00 0.00 85 1019.5
20200224051548 42 135 1.0 2.0 0.00 0.00 0.00 85 1019.7
20200224050043 42 135 0.0 2.0 0.00 0.00 0.00 84 1019.6
20200224044535 43 135 0.0 2.0 0.00 0.00 0.00 83 1019.7
20200224043029 43 135 0.0 2.0 0.00 0.00 0.00 84 1019.6
20200224041521 43 135 0.0 2.0 0.00 0.00 0.00 84 1019.5
20200224040016 43 135 0.0 2.0 0.00 0.00 0.00 84 1019.6
20200224034611 43 135 1.0 2.0 0.00 0.00 0.00 83 1019.5
20200224033104 43 135 1.0 2.0 0.00 0.00 0.00 84 1019.4
20200224031606 43 135 1.0 2.0 0.00 0.00 0.00 83 1019.5
20200224030051 44 135 1.0 2.0 0.00 0.00 0.00 82 1019.7
20200224024546 44 135 0.0 2.0 0.00 0.00 0.00 81 1019.6
20200224023041 44 135 1.0 2.0 0.00 0.00 0.00 80 1019.7
20200224021532 44 135 1.0 4.0 0.00 0.00 0.00 81 1019.9
20200224020027 45 135 0.0 2.0 0.00 0.00 0.00 81 1020.3
20200224014519 44 135 0.0 2.0 0.00 0.00 0.00 82 1020.3
20200224013114 44 135 1.0 2.0 0.00 0.00 0.00 82 1020.4
20200224011606 44 135 1.0 2.0 0.00 0.00 0.00 82 1020.8
20200224010100 44 135 0.0 2.0 0.00 0.00 0.00 82 1021.1
20200224004552 45 135 0.0 2.0 0.00 0.00 0.00 82 1021.2
20200224003047 46 135 0.0 2.0 0.00 0.00 0.00 81 1021.4
20200224001537 46 135 0.0 2.0 0.00 0.00 0.00 80 1021.6
20200224000032 46 135 0.0 2.0 0.00 0.00 0.00 79 1021.6
20200223234524 47 135 0.0 2.0 0.00 0.00 0.00 78 1021.7
20200223233118 47 135 0.0 2.0 0.00 0.00 0.00 77 1021.7
20200223231610 47 135 1.0 2.0 0.00 0.00 0.00 77 1021.7
20200223230104 47 135 1.0 4.0 0.00 0.00 0.00 77 1021.6
20200223224559 47 135 1.0 2.0 0.00 0.00 0.00 77 1021.9
20200223223054 48 135 0.0 2.0 0.00 0.00 0.00 77 1022.3
20200223221549 48 135 1.0 2.0 0.00 0.00 0.00 75 1022.5
20200223220044 49 135 1.0 2.0 0.00 0.00 0.00 74 1022.7
20200223214539 49 135 0.0 2.0 0.00 0.00 0.00 74 1022.8
20200223213034 49 135 0.0 2.0 0.00 0.00 0.00 73 1022.8
20200223211526 50 135 1.0 2.0 0.00 0.00 0.00 73 1023.1
20200223210021 50 135 0.0 2.0 0.00 0.00 0.00 73 1023.4
20200223204516 50 135 1.0 4.0 0.00 0.00 0.00 73 1023.3
20200223203111 49 135 0.0 2.0 0.00 0.00 0.00 73 1023.3
20200223201603 49 135 0.0 2.0 0.00 0.00 0.00 72 1023.5
20200223200058 50 0.0 2.0 0.00 0.00 0.00 71 1023.6
20200223194552 50 135 0.0 2.0 0.00 0.00 0.00 70 1023.5
20200223193047 51 135 1.0 4.0 0.00 0.00 0.00 68 1023.4
20200223191539 51 135 1.0 4.0 0.00 0.00 0.00 66 1023.5
20200223190034 51 135 1.0 4.0 0.00 0.00 0.00 65 1023.5
20200223184526 51 135 2.0 4.0 0.00 0.00 0.00 66 1023.8
20200223183021 51 135 0.0 2.0 0.00 0.00 0.00 67 1024.0
20200223181516 51 135 1.0 4.0 0.00 0.00 0.00 68 1024.1
20200223180111 51 135 1.0 4.0 0.00 0.00 0.00 67 1024.2
20200223174606 52 135 1.0 4.0 0.00 0.00 0.00 67 1024.3
20200223173100 52 135 1.0 2.0 0.00 0.00 0.00 67 1024.2
20200223171553 53 135 1.0 2.0 0.00 0.00 0.00 66 1024.1
20200223170046 54 123 1.0 2.0 0.00 0.00 0.00 63 1024.1
20200223164540 55 113 1.0 2.0 0.00 0.00 0.00 61 1024.2
20200223163035 56 113 1.0 4.0 0.00 0.00 0.00 59 1024.3
20200223161527 56 119 2.0 4.0 0.00 0.00 0.00 58 1024.6
20200223160022 57 111 2.0 4.0 0.00 0.00 0.00 59 1024.6
20200223154517 57 115 3.0 4.0 0.00 0.00 0.00 57 1024.4
20200223153112 57 122 4.0 7.0 0.00 0.00 0.00 58 1024.2
20200223151604 57 123 4.0 7.0 0.00 0.00 0.00 56 1024.1
20200223150058 57 121 4.0 7.0 0.00 0.00 0.00 53 1024.0
20200223144553 57 122 4.0 8.0 0.00 0.00 0.00 56 1024.0
20200223143046 57 119 5.0 9.0 0.00 0.00 0.00 59 1024.2
20200223141538 57 127 5.0 9.0 0.00 0.00 0.00 61 1024.4
20200223140030 58 109 3.0 7.0 0.00 0.00 0.00 58 1024.6
20200223134525 58 109 4.0 8.0 0.00 0.00 0.00 55 1024.8
20200223133020 58 100 2.0 7.0 0.00 0.00 0.00 52 1024.9
20200223131612 58 115 3.0 7.0 0.00 0.00 0.00 55 1024.9
20200223130106 59 115 2.0 7.0 0.00 0.00 0.00 56 1025.2
20200223124601 58 99 2.0 6.0 0.00 0.00 0.00 58 1025.4
20200223123055 59 95 1.0 4.0 0.00 0.00 0.00 55 1025.6
20200223121547 61 112 1.0 4.0 0.00 0.00 0.00 50 1025.7
20200223120042 61 42 1.0 4.0 0.00 0.00 0.00 47 1026.1
20200223114537 59 23 1.0 4.0 0.00 0.00 0.00 45 1026.2
20200223113032 59 21 2.0 4.0 0.00 0.00 0.00 45 1026.6
20200223111524 59 24 2.0 4.0 0.00 0.00 0.00 47 1026.9
20200223110020 59 29 1.0 4.0 0.00 0.00 0.00 46 1027.2
20200223104614 59 30 2.0 4.0 0.00 0.00 0.00 42 1027.5
20200223103109 59 354 2.0 4.0 0.00 0.00 0.00 40 1027.6
20200223101601 58 338 2.0 4.0 0.00 0.00 0.00 40 1027.9
20200223100055 57 332 2.0 4.0 0.00 0.00 0.00 43 1028.3
20200223094551 56 318 2.0 6.0 0.00 0.00 0.00 45 1028.5
20200223093045 56 354 2.0 4.0 0.00 0.00 0.00 46 1028.8
20200223091537 55 15 1.0 4.0 0.00 0.00 0.00 47 1029.0
20200223090032 55 300 1.0 4.0 0.00 0.00 0.00 45 1029.0
20200223084524 55 248 1.0 2.0 0.00 0.00 0.00 43 1029.0
20200223083118 55 248 0.0 2.0 0.00 0.00 0.00 43 1028.8
20200223081610 54 248 1.0 2.0 0.00 0.00 0.00 43 1028.7
20200223080105 54 248 0.0 2.0 0.00 0.00 0.00 44 1028.9
20200223074555 53 248 0.0 2.0 0.00 0.00 0.00 46 1028.8
20200223073050 53 248 0.0 2.0 0.00 0.00 0.00 47 1028.8
20200223071542 52 0.0 2.0 0.00 0.00 0.00 48 1028.8
20200223070036 49 0.0 2.0 0.00 0.00 0.00 52 1028.9
20200223064528 49 0.0 2.0 0.00 0.00 0.00 51 1029.0
20200223063022 46 0.0 0.0 0.00 0.00 0.00 55 1028.9
20200223061615 45 248 1.0 2.0 0.00 0.00 0.00 56 1028.9
20200223060109 42 248 0.0 2.0 0.00 0.00 0.00 61 1028.7
20200223054604 42 248 1.0 2.0 0.00 0.00 0.00 62 1028.4